Location: Plymouth
(43.7490°N, 87.9770°W)
Time: 06:29:31
(UTC-06:00)

Daily predictions for brighter satellites

Satellite Brightness Start Highest point End
(mag) Time Altitude Azimuth Time Altitude Azimuth Time Altitude Azimuth
USA 234 3.6 16:36:21 10° NE 16:42:48 58° SE 16:49:12 10° SSW
BREEZE M DEB (TANK) 3.1 16:43:29 10° WNW 16:45:59 35° NNE 16:51:32 10° E
Cosmos 372 Rocket 4.4 16:41:11 10° SSW 16:46:25 70° WNW 16:51:41 10° NNE
ASTEX 1 4.3 16:42:19 10° N 16:47:11 52° W 16:52:01 10° SSW
SL-8 R/B 4.1 16:42:47 10° SW 16:47:26 54° SSE 16:52:06 10° ENE
COSMOS 2406 4.0 16:41:57 10° NNW 16:47:34 59° WSW 16:53:11 10° S
Genesis I 3.9 16:45:34 10° NNW 16:49:10 33° NE 16:52:44 10° ESE
Cosmos 1536 Rocket 4.3 16:50:58 10° SSE 16:55:00 34° E 16:59:04 10° NNE
Cosmos 1833 Rocket 3.7 16:51:12 10° N 16:55:45 24° NE 17:00:15 10° ESE
Meteor 1-5 Rocket 4.4 16:52:08 10° NNW 16:57:36 80° W 17:03:12 10° S
Cosmos 2082 Rocket 3.0 16:53:44 10° N 16:58:36 29° NE 17:03:28 10° ESE
NOSS 3-3 (A) 4.3 16:52:48 10° S 16:58:44 50° ESE 17:05:06 10° NE
NOSS 3-3 (C) 4.3 16:52:56 10° S 16:58:50 49° ESE 17:05:11 10° NE
OPS 8737 4.3 16:55:34 10° SSW 16:58:52 65° ESE 17:02:01 10° NE
Cosmos 1238 Rocket 2.3 17:00:41 10° S 17:03:31 48° E 17:06:34 10° NNE
YAOGAN 1 2.7 16:59:55 10° SSE 17:04:08 54° ENE 17:08:22 10° N
Cosmos 1975 3.3 17:00:44 10° N 17:04:33 38° ENE 17:08:20 10° SE
Cosmos 1743 4.3 17:02:20 10° NNE 17:04:46 16° ENE 17:07:11 10° ESE
SPOT 3 Rocket 3.5 16:59:44 10° SSE 17:04:51 66° ENE 17:10:00 10° N
MSX 4.1 16:59:46 10° SE 17:05:13 46° ENE 17:10:40 10° N
CZ-4 R/B 1.4 17:01:27 10° SSE 17:05:37 80° ENE 17:09:45 10° N
ATLAS 2AS CENTAUR R/B 3.2 16:57:57 10° NW 17:06:04 81° WSW 17:13:38 10° SSE
Cosmos 494 Rocket 4.0 17:01:19 10° NNW 17:06:35 80° ENE 17:11:51 10° SSE
COSMOS 2487 3.3 17:05:31 10° N 17:08:45 30° ENE 17:11:58 10° SE
Cosmos 1500 3.8 17:06:11 10° N 17:09:42 33° ENE 17:13:12 10° SE
Meteor 1-12 Rocket 4.3 17:05:12 10° N 17:10:59 65° ENE 17:16:50 10° SSE
Meteor 2-19 Rocket 4.5 17:05:09 10° N 17:11:14 90° WSW 17:17:18 10° S
CRYOSAT 2 4.3 17:06:19 10° N 17:11:15 82° E 17:16:08 10° S
GEOS 3 Rocket 4.5 17:07:27 10° E 17:11:44 28° NE 17:16:01 10° NNW
Cosmos 1484 Rocket 3.6 17:09:28 10° SE 17:12:37 26° ENE 17:15:46 10° NNE
CZ-2C R/B 2.4 17:08:21 10° SSE 17:13:21 77° ENE 17:18:31 10° N
USA 32 4.0 17:08:30 10° S 17:13:43 89° E 17:18:58 10° N
MOS 1 4.3 17:08:38 10° SSE 17:14:18 83° ENE 17:19:59 10° NNW
Cosmos 2263 Rocket 4.5 17:12:53 10° W 17:16:28 17° NW 17:20:04 10° N
EP 2 4.2 17:15:02 10° SW 17:17:36 89° WSW 17:19:42 16° NE
Tiangong 1 2.5 17:15:24 10° SW 17:18:01 26° SSE 17:19:54 15° ESE
SJ-12 3.9 17:14:28 10° SSE 17:18:33 87° W 17:22:42 10° NNW
Cosmos 1455 Rocket 3.1 17:17:22 10° N 17:21:49 87° W 17:26:14 10° S
SKYMED 2 4.3 17:21:59 11° NE 17:25:38 31° E 17:29:31 10° SSE
IDEFIX/ARIANE 42P 2.7 17:24:34 10° S 17:29:46 79° WSW 17:34:59 10° NNW
ASTRO F (AKARI) 4.3 17:28:16 15° NNE 17:30:44 53° ESE 17:33:49 10° S
BREEZE-M R/B 4.4 17:19:09 10° SW 17:30:50 79° SSE 17:34:45 20° ENE
Okean 1-7 Rocket 4.2 17:32:58 10° SSE 17:37:04 35° E 17:39:56 17° NE
Cosmos 1809 Rocket 4.4 17:32:10 10° N 17:38:20 69° E 17:44:24 10° SSE
Thor Agena Rocket 3.8 17:33:29 10° N 17:38:42 75° WNW 17:43:56 10° SSW
Cosmos 1844 Rocket 3.9 17:34:58 10° SW 17:40:11 39° WNW 17:45:27 10° NNE
Cosmos 2366 rocket 4.4 17:35:01 10° NNW 17:41:19 67° W 17:47:32 10° S
Cosmos 1812 3.5 17:38:23 10° SSW 17:42:10 53° W 17:45:58 10° N
Cosmos 1934 Rocket 4.5 17:40:40 10° N 17:46:20 36° ENE 17:52:03 10° SE
OE (NEXTSAT) 4.4 17:43:38 10° WSW 17:47:12 72° SSE 17:48:25 38° E
NOSS 2-1 (D) 3.9 17:49:13 10° S 17:52:46 38° ESE 17:53:30 35° E
NOSS 2-1 (C) 3.9 17:49:54 10° S 17:53:28 38° ESE 17:54:09 35° E
Abrixas 2.2 17:51:36 10° WNW 17:54:34 81° NNE 17:54:51 69° E
TIMED 4.4 17:50:19 10° S 17:54:38 65° ESE 17:56:50 28° NNE
Okean 1 4.0 17:50:54 10° SSW 17:54:52 56° W 17:58:54 10° N
Timation 1 Rocket 4.3 17:55:05 10° S 18:00:56 61° ESE 18:04:19 26° NE
Cosmos 2239 Rocket 4.4 17:58:35 10° N 18:04:45 63° E 18:10:51 10° SSE
Cosmos 1346 Rocket 3.2 18:01:50 10° SSW 18:05:42 62° WNW 18:08:50 15° N
Cosmos 2297 3.6 18:01:09 10° SSW 18:06:47 82° ESE 18:10:20 24° NNE
ISS -1.5 18:05:12 10° WNW 18:07:47 22° N 18:07:47 22° N
BREEZE M DEB (TANK) 2.5 18:00:22 10° SW 18:08:04 62° SSE 18:08:45 50° ESE
Timation 2 Rocket 4.2 18:02:16 10° NNW 18:09:07 82° WSW 18:16:01 10° SSE
NOSS 2-1 (E) 3.4 18:08:15 10° SSW 18:12:02 55° ESE 18:12:13 54° ESE
COSMO-SKYMED 1 2.6 18:10:34 18° N 18:13:48 79° WNW 18:18:08 10° SSW
Cosmos 1821 Rocket 3.8 18:09:28 10° N 18:15:35 73° E 18:21:39 10° SSE
NOAA 12 4.0 18:11:22 10° SSE 18:16:37 68° ENE 18:21:51 10° N
Cosmos 2278 Rocket 3.3 18:13:31 10° SW 18:18:51 41° WNW 18:23:40 13° N
Intercosmos 25 3.5 18:17:15 10° NNW 18:20:26 56° W 18:23:40 10° S
USA 234 3.8 18:22:16 27° NNE 18:25:45 51° NNW 18:32:01 10° WSW
Cosmos 1605 Rocket 4.1 18:19:56 10° N 18:26:05 50° ENE 18:32:05 10° SSE
CZ-3B DEB 3.2 18:21:49 10° W 18:26:26 53° NNW 18:31:38 28° NE
SL-8 R/B 3.9 18:25:18 10° W 18:30:01 58° NNW 18:30:27 55° N
METEOR-M 4.0 18:26:59 10° SSE 18:32:19 80° ENE 18:37:42 10° NNW
Cosmos 2056 Rocket 3.5 18:27:39 10° S 18:32:41 59° ESE 18:32:41 59° ESE
Cosmos 407 Rocket 4.4 18:30:02 10° NNW 18:33:03 33° N 18:33:03 33° N
Cosmos 1025 Rocket 3.0 18:32:02 10° S 18:36:24 83° W 18:36:24 83° W
Cosmos 921 Rocket 3.7 18:35:08 10° SW 18:39:16 50° WNW 18:40:22 39° NNW
Cosmos 1833 Rocket 3.2 18:34:32 10° NNW 18:40:05 59° WSW 18:45:35 10° S
Cosmos 1743 4.1 18:37:11 10° NNW 18:40:48 38° W 18:44:23 10° SSW
NOSS 3-4 (A) 3.7 18:35:00 10° NW 18:42:02 81° NE 18:45:08 39° SE
NOSS 3-4 (C) 3.7 18:35:06 10° NW 18:42:08 80° NE 18:45:08 39° SE
Cosmos 2082 Rocket 3.1 18:37:29 10° NW 18:42:55 48° WSW 18:48:20 10° S
Cosmos 1624 Rocket 3.9 18:41:07 10° SSW 18:46:00 78° SSE 18:46:00 78° SSE
GEOS 3 Rocket 3.8 18:47:42 40° SSE 18:49:28 66° SW 18:54:34 10° NW
Cosmos 1371 Rocket 4.1 18:46:03 10° SSW 18:51:24 74° WNW 18:52:09 63° NNW
Meteor 1-15 Rocket 4.2 18:47:39 10° N 18:53:36 87° W 18:59:24 10° S
Tiangong 1 4.1 18:50:56 10° WSW 18:51:36 15° WSW 18:51:36 15° WSW
